[Iaude] MPEC R111: 2016 RQ19 [a=2.37,e=0.52,i=3.3,H=24.0]

mpec at mpc.eps.harvard.edu mpec at mpc.eps.harvard.edu
Sat Sep 10 21:31:17 EDT 2016


M.P.E.C. 2016-R111                               Issued 2016 Sept. 11, 01:28 UT
 
     The Minor Planet Electronic Circulars contain information on unusual
         minor planets and routine data on comets.  They are published
    on behalf of Division F of the International Astronomical Union by the
          Minor Planet Center, Smithsonian Astrophysical Observatory,
                          Cambridge, MA 02138, U.S.A.

             Prepared using the Tamkin Foundation Computer Network

                              MPC at CFA.HARVARD.EDU
            URL http://www.minorplanetcenter.net/    ISSN 1523-6714


                                   2016 RQ19
 
Observations:
     K16R19Q* C2016 09 06.13448 21 00 42.72 +08 41 05.3          21.1 VqER111G96
     K16R19Q  C2016 09 06.14054 21 00 44.22 +08 41 18.5          21.4 VqER111G96
     K16R19Q  C2016 09 06.14656 21 00 45.71 +08 41 31.1          21.5 VqER111G96
     K16R19Q  C2016 09 06.15270 21 00 47.27 +08 41 44.3          21.4 VqER111G96
     K16R19Q  C2016 09 06.22294 21 01 04.71 +08 44 10.1          20.9 VqER111G96
     K16R19Q  C2016 09 06.23012 21 01 06.45 +08 44 25.0          20.9 VqER111G96
     K16R19Q  C2016 09 06.81992 21 03 47.51 +09 04 19.7          22.1 VSER111033
     K16R19Q  C2016 09 06.82427 21 03 48.63 +09 04 28.6          21.8 VSER111033
     K16R19Q  C2016 09 06.82862 21 03 49.74 +09 04 37.1          21.9 VSER111033
     K16R19Q  C2016 09 06.83299 21 03 50.83 +09 04 46.3          21.9 VSER111033
     K16R19Q  C2016 09 06.90303 21 04 08.81 +09 07 09.3          21.4 VSER111033
     K16R19Q  C2016 09 06.90740 21 04 09.93 +09 07 18.3          21.7 VSER111033
     K16R19Q  C2016 09 06.91175 21 04 11.05 +09 07 27.0          21.5 VSER111033
     K16R19Q  C2016 09 06.91610 21 04 12.14 +09 07 36.1          21.3 VSER111033
     K16R19Q KC2016 09 07.14659021 05 15.96 +09 15 34.0          21.3 VuER111H21
     K16R19Q KC2016 09 07.15359721 05 17.76 +09 15 48.5          21.0 VuER111H21
     K16R19Q KC2016 09 07.16153821 05 19.76 +09 16 04.0          21.0 VuER111H21
     K16R19Q mC2016 09 09.20569 21 14 48.44 +10 23 25.0          21.5 VoER111691
     K16R19Q  C2016 09 09.20726 21 14 48.78 +10 23 28.0          21.5 VqER111G96
     K16R19Q  C2016 09 09.20937 21 14 49.29 +10 23 32.2          21.0 VqER111G96
     K16R19Q  C2016 09 09.21363 21 14 50.47 +10 23 40.6          21.3 VqER111G96
     K16R19Q mC2016 09 09.21466 21 14 50.58 +10 23 41.4          21.5 VoER111691
     K16R19Q KC2016 09 09.22352 21 14 53.05 +10 24 00.0          22.1 RoER111291
     K16R19Q mC2016 09 09.22360 21 14 53.12 +10 24 01.0          21.6 VoER111691
     K16R19Q KC2016 09 09.22512 21 14 53.47 +10 24 02.3                oER111291
     K16R19Q KC2016 09 09.22671 21 14 53.87 +10 24 05.4                oER111291
     K16R19Q KC2016 09 10.16670 21 19 21.55 +10 53 41.8          19.4 RoER111291
     K16R19Q KC2016 09 10.17031 21 19 22.49 +10 53 48.6          19.7 RoER111291
     K16R19Q KC2016 09 10.17396 21 19 23.46 +10 53 55.5          19.7 RoER111291
     K16R19Q  C2016 09 10.20969 21 19 32.84 +10 55 01.5          21.4 VqER111G96
     K16R19Q  C2016 09 10.21551 21 19 34.32 +10 55 12.4          20.3 VqER111G96
     K16R19Q  C2016 09 10.21784 21 19 34.95 +10 55 16.8                qER111G96
 
Observer details:
033 Karl Schwarzschild Observatory, Tautenburg.  Observers B. Stecklum,
    C. Hoegner.  Measurer B. Stecklum.  1.34-m f/3 Schmidt + CCD.
291 LPL/Spacewatch II.  Observer J. V. Scotti.  1.8-m f/2.7 reflector + CCD.
691 Steward Observatory, Kitt Peak.  Observer J. V. Scotti.  0.9-m f/3
    reflector + CCD.
G96 Mt. Lemmon Survey.  Observers D. C. Fuls, A. R. Gibbs.  Measurers
    E. J. Christensen, D. C. Fuls, A. R. Gibbs, A. D. Grauer, J. A. Johnson,
    R. A. Kowalski, S. M. Larson, G. J. Leonard, R. G. Matheny, R. L. Seaman,
    F. C. Shelly.  1.5-m reflector + 10K CCD.
H21 Astronomical Research Observatory, Westfield.  Observer R. Holmes.
    Measurers S. Foglia, L. Buzzi, T. Linder, R. Holmes.  0.81-m f/4.0
    astrograph + CCD.
 
Orbital elements:
2016 RQ19                                                Earth MOID = 0.1330 AU
Epoch 2016 July 31.0 TT = JDT 2457600.5                 MPC
M 349.87109              (2000.0)            P               Q
n   0.27027457     Peri.   64.92283     +0.94683647     +0.31646265
a   2.3691865      Node   276.58481     -0.31216527     +0.86020700
e   0.5229779      Incl.    3.34119     -0.07780454     +0.39986911
P   3.65           H   24.0           G   0.15           U   8
Residuals in seconds of arc
160906 G96  0.0   0.3-    160906 033  0.1+  0.1-    160909 291  0.1+  0.5+
160906 G96  0.2-  0.2+    160906 033  0.2+  0.2-    160909 691  0.8+  1.3+
160906 G96  0.4-  0.2+    160906 033  0.2-  0.1+    160909 291  0.2+  0.3-
160906 G96  0.0   0.5+    160907 H21  0.1+  0.3-    160909 291  0.0   0.3-
160906 G96  0.1+  0.1+    160907 H21  0.4+  0.0     160910 291  0.2+  0.1+
160906 G96  0.5-  0.2+    160907 H21  0.2+  0.6-    160910 291  0.0   0.1+
160906 033  0.3+  0.2+    160909 691  0.4+  0.3-    160910 291  0.1+  0.2+
160906 033  0.3+  0.1+    160909 G96  0.2+  0.2+    160910 G96  0.4+  0.4-
160906 033  0.2+  0.3-    160909 G96  0.4-  0.3+    160910 G96  0.4-  0.3-
160906 033  0.3-  0.1-    160909 G96  0.7+  0.5+    160910 G96  0.1-  0.3-
160906 033  0.1+  0.2-    160909 691  2.4-  1.1-

Ephemeris:
2016 RQ19                a,e,i = 2.37, 0.52, 3                   q = 1.1302
Date    TT    R. A. (2000) Decl.     Delta      r     Elong.  Phase     V
2016 08 12    19 40 59.3 -06 31 50   0.1718  1.1684   152.5    23.6    21.6
...
2016 08 27    20 20 04.9 +02 27 33   0.1475  1.1368   146.9    29.1    21.4
...
2016 09 04    20 51 17.3 +07 26 16   0.1431  1.1305   146.5    29.5    21.3
...
2016 09 10    21 18 32.6 +10 48 51   0.1442  1.1309   147.2    28.8    21.3
2016 09 11    21 23 18.3 +11 19 33   0.1448  1.1314   147.4    28.6    21.3
2016 09 12    21 28 06.7 +11 49 12   0.1455  1.1320   147.7    28.4    21.3
...
2016 09 18    21 57 22.9 +14 22 24   0.1520  1.1381   149.3    26.8    21.4
...
2016 09 26    22 35 19.1 +16 34 32   0.1674  1.1528   151.8    24.3    21.6
...
2016 10 11    23 35 00.7 +17 36 05   0.2168  1.1988   155.4    20.3    22.1

A. U. Tomatic                (C) Copyright 2016 MPC           M.P.E.C. 2016-R111




More information about the Iaude mailing list